EW1732 Weather Reports


Display with metric or nautical units.
time (UTC)temp
F
wind
direction
speed
MPH
gust
MPH
rain 1hr
in
rain 24hr
in
rain mn
in
humidity
%
barometer
mb
20260504020506 46 262 0.0 0.0 0.00 0.00 0.00 56 1012.1
20260504015437 47 262 0.0 0.0 0.00 0.00 0.00 56 1012.0
20260504012125 48 262 0.0 0.0 0.00 0.00 0.00 53 1011.9
20260504010005 49 262 0.0 0.0 0.00 0.00 0.00 50 1011.7
20260504005020 50 262 0.0 0.0 0.00 0.00 0.00 48 1011.4
20260504004031 51 262 0.0 0.0 0.00 0.00 0.00 46 1011.3
20260504003056 52 262 0.0 0.0 0.00 0.00 0.00 44 1011.2
20260504002116 53 262 0.0 0.0 0.00 0.00 0.00 41 1011.0
20260504001131 53 18 0.0 1.0 0.00 0.00 0.00 39 1011.0
20260504000056 54 260 0.0 1.0 0.00 0.00 0.00 38 1010.8
20260503235120 54 176 0.0 0.0 0.00 0.00 0.00 38 1010.7
20260503234141 54 239 0.0 3.0 0.00 0.00 0.00 36 1010.5
20260503233155 54 226 0.0 0.0 0.00 0.00 0.00 35 1010.4
20260503231049 55 295 0.0 8.0 0.00 0.00 0.00 35 1010.2
20260503225054 56 330 0.0 4.0 0.00 0.00 0.00 33 1009.9
20260503222945 57 313 2.0 10.0 0.00 0.00 0.00 31 1009.8
20260503221919 58 271 1.0 4.0 0.00 0.00 0.00 32 1009.8
20260503215728 58 244 1.0 6.0 0.00 0.00 0.00 33 1009.8
20260503214739 58 240 1.0 6.0 0.00 0.00 0.00 32 1009.9
20260503213738 58 39 1.0 5.0 0.00 0.00 0.00 36 1009.7
20260503211600 58 238 0.0 4.0 0.00 0.00 0.00 37 1009.6
20260503210529 57 347 1.0 4.0 0.00 0.00 0.00 37 1009.7
20260503205503 56 336 1.0 9.0 0.00 0.00 0.00 37 1009.7
20260503201006 56 321 2.0 7.0 0.00 0.00 0.00 39 1009.9
20260503194842 55 302 1.0 7.0 0.00 0.00 0.00 38 1009.9
20260503193833 54 49 2.0 7.0 0.00 0.00 0.00 41 1010.1
20260503192823 54 348 2.0 13.0 0.00 0.00 0.00 41 1010.2
20260503191839 54 321 3.0 15.0 0.00 0.00 0.00 40 1010.2
20260503190852 54 341 2.0 15.0 0.00 0.00 0.00 41 1010.3
20260503185902 54 5 2.0 15.0 0.00 0.00 0.00 42 1010.3
20260503184841 52 334 2.0 6.0 0.00 0.00 0.00 43 1010.3
20260503183808 52 301 1.0 10.0 0.00 0.00 0.00 43 1010.5
20260503182824 52 213 2.0 10.0 0.00 0.00 0.00 41 1010.6
20260503181813 54 296 2.0 17.0 0.00 0.00 0.00 41 1010.6
20260503180835 53 348 3.0 17.0 0.00 0.00 0.00 42 1010.4
20260503173513 52 253 2.0 8.0 0.00 0.00 0.00 41 1010.5
20260503172452 52 8 3.0 8.0 0.00 0.00 0.00 40 1010.6
20260503171511 52 331 3.0 12.0 0.00 0.00 0.00 41 1010.4
20260503150212 48 319 2.0 14.0 0.00 0.00 0.00 55 1011.0
20260503131012 45 321 1.0 7.0 0.00 0.00 0.00 62 1011.2
20260503110701 40 263 0.0 0.0 0.00 0.00 0.00 71 1010.9
20260503081057 41 261 0.0 0.0 0.00 0.02 0.00 68 1010.6
20260503080116 41 309 0.0 7.0 0.00 0.02 0.00 67 1010.6
20260503072117 41 294 0.0 5.0 0.00 0.03 0.00 66 1010.6
20260503054637 44 252 0.0 0.0 0.00 0.03 0.00 63 1011.2
20260503053701 44 147 0.0 0.0 0.00 0.03 0.00 63 1011.2
20260503052718 44 236 0.0 2.0 0.00 0.03 0.00 62 1011.2
20260503051725 44 314 0.0 1.0 0.00 0.03 0.00 62 1011.3
20260503050750 45 247 0.0 1.0 0.00 0.03 0.00 61 1011.4
20260503045750 45 230 0.0 2.0 0.00 0.03 0.00 60 1011.5
20260503044806 45 250 0.0 2.0 0.00 0.03 0.00 59 1011.6
20260503042556 45 237 0.0 3.0 0.00 0.03 0.00 57 1011.6
20260503035312 46 235 0.0 0.0 0.00 0.03 0.03 57 1011.6
20260503034320 46 252 0.0 2.0 0.00 0.03 0.03 56 1011.5
20260503033256 47 112 0.0 0.0 0.00 0.03 0.03 55 1011.5
20260503032225 47 122 0.0 0.0 0.00 0.03 0.03 55 1011.5
20260503031245 47 311 0.0 4.0 0.00 0.03 0.03 55 1011.5
20260503030241 48 244 0.0 4.0 0.00 0.03 0.03 54 1011.4
20260503025237 48 310 0.0 3.0 0.00 0.03 0.03 54 1011.6
20260503024227 48 297 0.0 1.0 0.00 0.03 0.03 54 1011.6
20260503023154 48 98 0.0 0.0 0.00 0.03 0.03 55 1011.7
20260503021042 48 105 0.0 0.0 0.00 0.03 0.03 55 1011.8